This is the latest recevied weather packets stored in our database for station/object KC5DP. If no packets are shown the sender has not sent any weather packets the latest 10 day(s).
| Time | Temp. | Humidity | Pressure | Rain* | Wind** | Luminosity | Snow |
|---|---|---|---|---|---|---|---|
| 1777654143 | 17.22° C | 96% | 1012.8 hPa | 0 mm | - | 89 W/m² | - |
| 1777653840 | 17.22° C | 96% | 1012.8 hPa | 0 mm | - | 92 W/m² | - |
| 1777653536 | 17.22° C | 97% | 1012.5 hPa | 0 mm | - | 112 W/m² | - |
| 1777653233 | 17.22° C | 97% | 1012.6 hPa | 0 mm | - | 150 W/m² | - |
| 1777652929 | 17.22° C | 97% | 1012.6 hPa | 0 mm | - | 130 W/m² | - |
| 1777652626 | 17.22° C | 97% | 1012.7 hPa | 0 mm | - | 126 W/m² | - |
| 1777652323 | 17.22° C | 97% | 1012.9 hPa | 0 mm | - | 94 W/m² | - |
| 1777652020 | 17.22° C | 97% | 1013 hPa | 0 mm | - | 98 W/m² | - |
| 1777651717 | 16.67° C | 97% | 1013.4 hPa | 0 mm | - | 89 W/m² | - |
| 1777651413 | 16.67° C | 97% | 1013.6 hPa | 0 mm | - | 44 W/m² | - |
| 1777651111 | 16.67° C | 97% | 1013.6 hPa | 0 mm | - | 44 W/m² | - |
| 1777650807 | 16.67° C | 98% | 1013.8 hPa | 0 mm | - | 39 W/m² | - |
| 1777650504 | 16.67° C | 98% | 1013.7 hPa | 0 mm | - | 32 W/m² | - |
| 1777650201 | 16.67° C | 98% | 1013.7 hPa | 0 mm | - | 31 W/m² | - |
| 1777649899 | 16.67° C | 98% | 1013.6 hPa | 0 mm | - | 32 W/m² | - |
| 1777649597 | 16.67° C | 98% | 1013.6 hPa | 0 mm | - | 40 W/m² | - |
| 1777649292 | 17.22° C | 98% | 1013.4 hPa | 0 mm | - | 45 W/m² | - |
| 1777648989 | 16.67° C | 98% | 1013.2 hPa | 0 mm | - | 44 W/m² | - |
| 1777648687 | 16.67° C | 98% | 1013.1 hPa | 0 mm | - | 43 W/m² | - |
| 1777648383 | 16.67° C | 98% | 1013.2 hPa | 0 mm | - | 40 W/m² | - |
| 1777648079 | 17.22° C | 98% | 1012.8 hPa | 0 mm | - | 48 W/m² | - |
| 1777647775 | 17.22° C | 98% | 1012.8 hPa | 0 mm | - | 65 W/m² | - |
| 1777647472 | 17.22° C | 98% | 1013 hPa | 0 mm | - | 59 W/m² | - |
| 1777647169 | 17.22° C | 98% | 1013 hPa | 0 mm | - | 48 W/m² | - |
| 1777646865 | 17.22° C | 98% | 1012.8 hPa | 0 mm | - | 54 W/m² | - |
* Rain latest hour (hover to see other rain measurements)
** Current wind speed in m/s (hover to see current wind gust speed)